Provo, UT

7:47 PM MDT on August 29, 2016 (GMT -0600)
Provo Municipal

Weather History for KPVU - September, 2012

Change the Weather History Date:

Sunday, September 2, 2012

  Actual Average Record
Temperature  
Mean Temperature 70 °F -  
Max Temperature 84 °F 80 °F 91 °F (1987)
Min Temperature 55 °F 52 °F 39 °F (2008)
Cooling Degree Days 4    
Growing Degree Days 20 (Base 50)    
Moisture  
Dew Point 53 °F    
Average Humidity 66    
Maximum Humidity 94    
Minimum Humidity 25    
Precipitation  
Precipitation 0.00 in - - ()
Sea Level Pressure  
Sea Level Pressure 30.14 in    
Wind  
Wind Speed 5 mph (North)    
Max Wind Speed 15 mph    
Max Gust Speed -    
Visibility 12 miles    
Events      
Averages and records for this station are not official NWS values.
T = Trace of Precipitation, MM = Missing Value Source: NWS Daily Summary

Daily Weather History Graph

Daily Weather History Graph

Search for Another Location

Airport or City:

Trip Planner

Search our weather history database for the weather conditions in past years. The results will help you decide how hot, cold, wet, or windy it might be!

Date:

Astronomy

Sep. 02, 2012 Rise Set
Actual Time 6:55 AM MDT 7:56 PM MDT
Civil Twilight 6:28 AM MDT 8:23 PM MDT
Nautical Twilight 5:55 AM MDT 8:56 PM MDT
Astronomical Twilight 5:20 AM MDT 9:31 PM MDT
Moon 8:45 PM MDT (9/2) 9:08 AM MDT (9/2)
Length of Visible Light 13h 55m
Length of Day
13h 00m
Waning Gibbous, 95% of the Moon is Illuminated
Sep 2
Waning Gibbous
Sep 8
Last Quarter
Sep 15
New
Sep 22
First Quarter
Sep 29
Full

Hourly Weather History & Observations

Time (MDT) Temp. Dew Point Humidity Pressure Visibility Wind Dir Wind Speed Gust Speed Precip Events Conditions
12:15 AM 60.8 °F 55.4 °F 82% 30.17 in 10.0 mi East 5.8 mph - N/A   Mostly Cloudy
12:55 AM 59.0 °F 53.6 °F 82% 30.17 in 10.0 mi Calm Calm - N/A   Clear
1:15 AM 57.2 °F 55.4 °F 94% 30.16 in 10.0 mi East 3.5 mph - N/A   Clear
2:15 AM 59.0 °F 53.6 °F 82% 30.16 in 10.0 mi NW 6.9 mph - N/A   Mostly Cloudy
2:35 AM 60.8 °F 53.6 °F 77% 30.16 in 10.0 mi NW 9.2 mph - N/A   Mostly Cloudy
2:55 AM 62.6 °F 51.8 °F 68% 30.15 in 10.0 mi NNW 9.2 mph - N/A   Overcast
3:15 AM 60.8 °F 51.8 °F 72% 30.16 in 10.0 mi North 9.2 mph - N/A   Overcast
3:35 AM 60.8 °F 51.8 °F 72% 30.16 in 10.0 mi NNW 8.1 mph - N/A   Overcast
4:15 AM 60.8 °F 53.6 °F 77% 30.15 in 10.0 mi North 4.6 mph - N/A   Overcast
4:35 AM 57.2 °F 51.8 °F 82% 30.16 in 10.0 mi Calm Calm - N/A   Scattered Clouds
4:55 AM 57.2 °F 53.6 °F 88% 30.16 in 10.0 mi Calm Calm - N/A   Mostly Cloudy
5:15 AM 57.2 °F 51.8 °F 82% 30.16 in 10.0 mi Calm Calm - N/A   Mostly Cloudy
5:55 AM 59.0 °F 48.2 °F 67% 30.16 in 10.0 mi WNW 5.8 mph - N/A   Clear
6:15 AM 57.2 °F 48.2 °F 72% 30.16 in 10.0 mi Calm Calm - N/A   Clear
6:35 AM 57.2 °F 50.0 °F 77% 30.17 in 10.0 mi SE 4.6 mph - N/A   Clear
7:50 AM 55.4 °F 53.6 °F 94% 30.19 in 15.0 mi Calm Calm - N/A   Partly Cloudy
7:53 AM 55.4 °F 50.0 °F 82% 30.17 in 15.0 mi Calm Calm - N/A   Partly Cloudy
8:52 AM 62.6 °F 53.6 °F 72% 30.19 in 15.0 mi East 3.5 mph - N/A   Partly Cloudy
9:55 AM 66.2 °F 55.4 °F 68% 30.21 in 15.0 mi East 3.5 mph - N/A   Partly Cloudy
10:49 AM 69.8 °F 53.6 °F 56% 30.21 in 15.0 mi South 3.5 mph - N/A   Partly Cloudy
11:52 AM 73.4 °F 53.6 °F 50% 30.19 in 15.0 mi SSW 6.9 mph - N/A   Partly Cloudy
12:56 PM 75.2 °F 55.4 °F 50% 30.17 in 15.0 mi WSW 15.0 mph - N/A   Partly Cloudy
1:50 PM 77.0 °F 55.4 °F 47% 30.15 in 15.0 mi Variable 5.8 mph - N/A   Scattered Clouds
2:49 PM 82.4 °F 51.8 °F 35% 30.13 in 15.0 mi Calm Calm - N/A   Partly Cloudy
3:50 PM 84.2 °F 48.2 °F 29% 30.10 in 15.0 mi Variable 5.8 mph - N/A   Scattered Clouds
4:50 PM 84.2 °F 44.6 °F 25% 30.09 in 15.0 mi Variable 5.8 mph - N/A   Scattered Clouds
5:50 PM 80.6 °F 50.0 °F 34% 30.07 in 15.0 mi WNW 9.2 mph - N/A   Partly Cloudy
7:50 PM 75.2 °F 57.2 °F 53% 30.07 in 15.0 mi NW 11.5 mph - N/A   Partly Cloudy
8:50 PM 71.6 °F 57.2 °F 60% 30.09 in 15.0 mi WNW 11.5 mph - N/A   Clear
9:35 PM 71.6 °F 57.2 °F 60% 30.10 in 10.0 mi NW 12.7 mph - N/A   Clear
9:55 PM 69.8 °F 59.0 °F 68% 30.11 in 10.0 mi North 3.5 mph - N/A   Clear
10:15 PM 69.8 °F 55.4 °F 60% 30.11 in 10.0 mi WNW 5.8 mph - N/A   Clear
10:35 PM 69.8 °F 55.4 °F 60% 30.11 in 10.0 mi SE 6.9 mph - N/A   Clear
10:55 PM 66.2 °F 51.8 °F 60% 30.12 in 10.0 mi SSE 6.9 mph - N/A   Clear
11:15 PM 66.2 °F 53.6 °F 64% 30.12 in 10.0 mi SE 6.9 mph - N/A   Clear
11:35 PM 64.4 °F 53.6 °F 68% 30.12 in 10.0 mi SE 6.9 mph - N/A   Clear
11:55 PM 64.4 °F 51.8 °F 64% 30.12 in 10.0 mi East 5.8 mph - N/A   Clear